When you browse on this site, cookies collect data to enhance your experience and personalize the content and advertising you see.
Visit our Privacy Policy to learn more. By continuing to use the site, you agree to this use of cookies and data.
EN

Hourly Weather Naugatuck

Today, 13 August, Thursday

Time Temperature Precipitation Wind Pressure Humidity
00:00 +24°C° 0.1 mm 1 mps 747 mmHg 64%
01:00 +24°C° 0.1 mm 1 mps 747 mmHg 63%
02:00 +23°C° 0 mm 1 mps 747 mmHg 64%
03:00 +23°C° 0 mm 2 mps 747 mmHg 65%
04:00 +23°C° 0 mm 2 mps 747 mmHg 66%
05:00 +23°C° 0.2 mm 2 mps 748 mmHg 67%
06:00 +24°C° 0.2 mm 1 mps 748 mmHg 68%
07:00 +24°C° 0.2 mm 1 mps 748 mmHg 69%
08:00 +25°C° 0 mm 1 mps 748 mmHg 65%
09:00 +26°C° 0 mm 1 mps 748 mmHg 60%
10:00 +28°C° 0 mm 2 mps 748 mmHg 55%
11:00 +29°C° 0 mm 2 mps 748 mmHg 53%
12:00 +30°C° 0 mm 1 mps 748 mmHg 50%
13:00 +31°C° 0 mm 1 mps 748 mmHg 48%
14:00 +30°C° 0.3 mm 2 mps 747 mmHg 56%
15:00 +29°C° 0.3 mm 2 mps 747 mmHg 63%
16:00 +28°C° 0.3 mm 2 mps 747 mmHg 71%
17:00 +27°C° 0.2 mm 1 mps 747 mmHg 75%
18:00 +26°C° 0.2 mm 1 mps 747 mmHg 79%
19:00 +22°C° 0.2 mm 0 mps 747 mmHg 83%
20:00 +22°C° 0.1 mm 0 mps 747 mmHg 85%
21:00 +21°C° 0.1 mm 0 mps 747 mmHg 86%
22:00 +21°C° 0.1 mm 0 mps 747 mmHg 87%
23:00 +21°C° 0.3 mm 0 mps 747 mmHg 87%

Tomorrow, 14 August, Friday

Time Temperature Precipitation Wind Pressure Humidity
00:00 +21°C° 0.3 mm 0 mps 747 mmHg 87%
01:00 +22°C° 0.3 mm 1 mps 747 mmHg 87%
02:00 +22°C° 0.1 mm 1 mps 747 mmHg 86%
03:00 +22°C° 0.1 mm 1 mps 747 mmHg 86%
04:00 +21°C° 0.1 mm 1 mps 747 mmHg 86%
05:00 +22°C° 0 mm 1 mps 747 mmHg 84%
06:00 +22°C° 0 mm 1 mps 747 mmHg 82%
07:00 +23°C° 0 mm 1 mps 747 mmHg 80%
08:00 +25°C° 0 mm 1 mps 747 mmHg 72%
09:00 +27°C° 0 mm 2 mps 747 mmHg 65%
10:00 +29°C° 0 mm 2 mps 747 mmHg 57%
11:00 +29°C° 0.5 mm 2 mps 747 mmHg 61%
12:00 +28°C° 0.5 mm 2 mps 747 mmHg 64%
13:00 +28°C° 0.5 mm 2 mps 747 mmHg 68%
14:00 +29°C° 0.2 mm 2 mps 746 mmHg 65%
15:00 +29°C° 0.2 mm 2 mps 746 mmHg 62%
16:00 +29°C° 0.2 mm 2 mps 746 mmHg 59%
17:00 +27°C° 0 mm 2 mps 746 mmHg 65%
18:00 +25°C° 0 mm 2 mps 746 mmHg 71%
19:00 +24°C° 0 mm 2 mps 746 mmHg 76%
20:00 +23°C° 0 mm 2 mps 746 mmHg 78%
21:00 +21°C° 0 mm 2 mps 746 mmHg 79%
22:00 +21°C° 0 mm 2 mps 746 mmHg 81%
23:00 +20°C° 0 mm 2 mps 746 mmHg 81%

Day after tomorrow, 15 August, Saturday

Time Temperature Precipitation Wind Pressure Humidity
00:00 +20°C° 0 mm 2 mps 746 mmHg 81%
01:00 +19°C° 0 mm 3 mps 746 mmHg 81%
02:00 +19°C° 0 mm 3 mps 746 mmHg 82%
03:00 +19°C° 0 mm 3 mps 746 mmHg 83%
04:00 +19°C° 0 mm 3 mps 746 mmHg 83%
05:00 +19°C° 0 mm 4 mps 746 mmHg 80%
06:00 +20°C° 0 mm 4 mps 747 mmHg 78%
07:00 +20°C° 0 mm 4 mps 747 mmHg 75%
08:00 +22°C° 0 mm 4 mps 747 mmHg 68%
09:00 +25°C° 0 mm 4 mps 747 mmHg 61%
10:00 +26°C° 0 mm 4 mps 747 mmHg 54%
11:00 +27°C° 0 mm 5 mps 747 mmHg 52%
12:00 +28°C° 0 mm 5 mps 747 mmHg 50%
13:00 +29°C° 0 mm 5 mps 747 mmHg 48%
14:00 +28°C° 0 mm 5 mps 747 mmHg 51%
15:00 +27°C° 0 mm 4 mps 747 mmHg 54%
16:00 +27°C° 0 mm 4 mps 746 mmHg 58%
17:00 +26°C° 0 mm 4 mps 747 mmHg 62%
18:00 +23°C° 0 mm 4 mps 747 mmHg 66%
19:00 +22°C° 0 mm 4 mps 747 mmHg 71%
20:00 +21°C° 0 mm 4 mps 747 mmHg 74%
21:00 +21°C° 0 mm 4 mps 747 mmHg 78%
22:00 +20°C° 0 mm 4 mps 747 mmHg 82%
23:00 +19°C° 0 mm 4 mps 747 mmHg 83%

16 August, Sunday

Time Temperature Precipitation Wind Pressure Humidity
00:00 +19°C° 0 mm 4 mps 747 mmHg 84%
01:00 +18°C° 0 mm 4 mps 747 mmHg 85%
02:00 +18°C° 0 mm 4 mps 747 mmHg 85%
03:00 +18°C° 0 mm 4 mps 747 mmHg 85%
04:00 +18°C° 0 mm 4 mps 746 mmHg 85%
05:00 +18°C° 0 mm 4 mps 746 mmHg 82%
06:00 +18°C° 0 mm 4 mps 746 mmHg 79%
07:00 +17°C° 0 mm 5 mps 746 mmHg 76%
08:00 +19°C° 0 mm 4 mps 746 mmHg 75%
09:00 +20°C° 0 mm 4 mps 746 mmHg 73%
10:00 +20°C° 0 mm 4 mps 746 mmHg 71%
11:00 +21°C° 0 mm 4 mps 746 mmHg 71%
12:00 +21°C° 0 mm 3 mps 745 mmHg 71%
13:00 +21°C° 0 mm 3 mps 745 mmHg 71%
14:00 +21°C° 0.8 mm 3 mps 745 mmHg 77%
15:00 +20°C° 0.8 mm 4 mps 744 mmHg 83%
16:00 +19°C° 0.8 mm 4 mps 744 mmHg 88%
17:00 +19°C° 2.1 mm 4 mps 743 mmHg 91%
18:00 +19°C° 2.1 mm 5 mps 743 mmHg 93%
19:00 +19°C° 2.1 mm 5 mps 743 mmHg 96%
20:00 +19°C° 1.4 mm 5 mps 743 mmHg 96%
21:00 +20°C° 1.4 mm 5 mps 742 mmHg 97%
22:00 +20°C° 1.4 mm 5 mps 742 mmHg 97%
23:00 +20°C° 2.1 mm 4 mps 742 mmHg 97%

17 August, Monday

Time Temperature Precipitation Wind Pressure Humidity
00:00 +21°C° 2.1 mm 3 mps 741 mmHg 98%
01:00 +21°C° 2.1 mm 3 mps 741 mmHg 98%
02:00 +21°C° 0.7 mm 2 mps 740 mmHg 98%
03:00 +23°C° 0.7 mm 2 mps 740 mmHg 98%
04:00 +23°C° 0.7 mm 1 mps 740 mmHg 98%
05:00 +23°C° 0.3 mm 1 mps 740 mmHg 98%
06:00 +23°C° 0.3 mm 1 mps 740 mmHg 97%
07:00 +24°C° 0.3 mm 1 mps 740 mmHg 96%
08:00 +25°C° 0.5 mm 1 mps 740 mmHg 91%
09:00 +26°C° 0.5 mm 1 mps 740 mmHg 87%
10:00 +27°C° 0.5 mm 1 mps 740 mmHg 82%
11:00 +28°C° 0.7 mm 1 mps 740 mmHg 80%
12:00 +29°C° 0.7 mm 1 mps 740 mmHg 77%
13:00 +29°C° 0.7 mm 1 mps 739 mmHg 75%
14:00 +29°C° 0.6 mm 1 mps 739 mmHg 75%
15:00 +29°C° 0.6 mm 1 mps 739 mmHg 74%
16:00 +29°C° 0.6 mm 2 mps 739 mmHg 74%
17:00 +28°C° 0.1 mm 2 mps 739 mmHg 77%
18:00 +26°C° 0.1 mm 2 mps 739 mmHg 81%
19:00 +25°C° 0.1 mm 2 mps 739 mmHg 84%
20:00 +24°C° 0 mm 2 mps 740 mmHg 84%
21:00 +23°C° 0 mm 2 mps 740 mmHg 84%
22:00 +21°C° 0 mm 2 mps 740 mmHg 84%
23:00 +21°C° 0 mm 3 mps 740 mmHg 83%

18 August, Tuesday

Time Temperature Precipitation Wind Pressure Humidity
00:00 +20°C° 0 mm 3 mps 740 mmHg 83%
01:00 +20°C° 0 mm 3 mps 740 mmHg 82%
02:00 +19°C° 0 mm 2 mps 740 mmHg 82%
03:00 +19°C° 0 mm 2 mps 740 mmHg 82%
04:00 +18°C° 0 mm 2 mps 740 mmHg 82%
05:00 +19°C° 0 mm 2 mps 741 mmHg 80%
06:00 +20°C° 0 mm 3 mps 741 mmHg 78%
07:00 +20°C° 0 mm 3 mps 741 mmHg 76%
08:00 +22°C° 0 mm 3 mps 742 mmHg 67%
09:00 +25°C° 0 mm 3 mps 742 mmHg 59%
10:00 +27°C° 0 mm 3 mps 742 mmHg 51%
11:00 +27°C° 0 mm 3 mps 742 mmHg 48%
12:00 +28°C° 0 mm 3 mps 742 mmHg 45%
13:00 +29°C° 0 mm 3 mps 742 mmHg 42%
14:00 +29°C° 0 mm 3 mps 742 mmHg 43%
15:00 +28°C° 0 mm 2 mps 742 mmHg 44%
16:00 +28°C° 0 mm 2 mps 742 mmHg 45%
17:00 +26°C° 0 mm 2 mps 742 mmHg 51%
18:00 +24°C° 0 mm 2 mps 743 mmHg 56%
19:00 +21°C° 0 mm 2 mps 743 mmHg 62%
20:00 +21°C° 0 mm 2 mps 743 mmHg 64%
21:00 +20°C° 0 mm 2 mps 744 mmHg 67%
22:00 +19°C° 0 mm 2 mps 744 mmHg 69%
23:00 +18°C° 0 mm 2 mps 744 mmHg 71%
Show more